Fort Campbell, KY

11:52 AM CST on December 07, 2016 (GMT -0600)
Campbell Army Air Field

Weather History for KHOP - September, 2013

Change the Weather History Date:

Monday, September 9, 2013

  Actual Average Record
Temperature  
Mean Temperature 80 °F -  
Max Temperature 88 °F 82 °F 93 °F (2002)
Min Temperature 73 °F 60 °F 52 °F (2012)
Cooling Degree Days 16    
Growing Degree Days 30 (Base 50)    
Moisture  
Dew Point 74 °F    
Average Humidity 84    
Maximum Humidity 100    
Minimum Humidity 60    
Precipitation  
Precipitation 0.09 in - - ()
Sea Level Pressure  
Sea Level Pressure 30.01 in    
Wind  
Wind Speed 5 mph (South)    
Max Wind Speed 10 mph    
Max Gust Speed -    
Visibility 10 miles    
Events Rain    
Averages and records for this station are not official NWS values.
T = Trace of Precipitation, MM = Missing Value Source: NWS Daily Summary

Daily Weather History Graph

Daily Weather History Graph

Search for Another Location

Airport or City:

Trip Planner

Search our weather history database for the weather conditions in past years. The results will help you decide how hot, cold, wet, or windy it might be!

Date:

Astronomy

Sep. 09, 2013 Rise Set
Actual Time 6:27 AM CDT 7:06 PM CDT
Civil Twilight 6:01 AM CDT 7:32 PM CDT
Nautical Twilight 5:30 AM CDT 8:02 PM CDT
Astronomical Twilight 4:59 AM CDT 8:34 PM CDT
Moon 10:40 AM CDT (9/9) 9:31 PM CDT (9/9)
Length of Visible Light 13h 30m
Length of Day
12h 38m
Waxing Crescent, 19% of the Moon is Illuminated
Sep 9
Waxing Crescent
Sep 12
First Quarter
Sep 19
Full
Sep 26
Last Quarter
Oct 4
New

Hourly Weather History & Observations

Time (CDT) Temp. Heat Index Dew Point Humidity Pressure Visibility Wind Dir Wind Speed Gust Speed Precip Events Conditions
12:58 AM 75.2 °F - 73.2 °F 94% 29.98 in 10.0 mi East 6.9 mph - N/A   Mostly Cloudy
1:58 AM 74.8 °F - 72.9 °F 94% 29.98 in 10.0 mi East 5.8 mph - N/A   Mostly Cloudy
2:20 AM 75.2 °F - 73.4 °F 94% 29.99 in 10.0 mi South 4.6 mph - N/A   Light Drizzle
2:32 AM 75.2 °F - 73.4 °F 94% 29.99 in 8.0 mi South 9.2 mph - N/A Rain Light Rain
2:43 AM 75.2 °F - 75.2 °F 100% 29.99 in 10.0 mi Variable 2.3 mph - N/A   Light Drizzle
2:55 AM 73.4 °F - 73.4 °F 100% 30.00 in 9.0 mi Variable 1.2 mph - N/A   Mostly Cloudy
2:58 AM 73.8 °F - 73.8 °F 100% 29.99 in 9.0 mi SSE 2.3 mph - 0.03 in   Scattered Clouds
3:03 AM 73.4 °F - 73.4 °F 100% 30.00 in 9.0 mi SW 8.1 mph - N/A   Light Drizzle
3:29 AM 73.4 °F - 73.4 °F 100% 30.00 in 10.0 mi East 8.1 mph - N/A   Overcast
3:31 AM 73.4 °F - 73.4 °F 100% 30.00 in 10.0 mi East 5.8 mph - N/A   Light Drizzle
3:58 AM 73.0 °F - 73.0 °F 100% 29.99 in 10.0 mi East 3.5 mph - 0.06 in   Light Drizzle
4:14 AM 73.4 °F - 73.4 °F 100% 29.99 in 10.0 mi East 3.5 mph - N/A   Scattered Clouds
4:58 AM 73.8 °F - 73.8 °F 100% 29.99 in 10.0 mi South 8.1 mph - 0.00 in   Mostly Cloudy
5:58 AM 74.1 °F - 72.7 °F 95% 29.98 in 10.0 mi South 5.8 mph - N/A   Mostly Cloudy
6:58 AM 73.9 °F - 73.0 °F 97% 30.00 in 10.0 mi South 2.3 mph - N/A   Mostly Cloudy
7:58 AM 73.6 °F - 72.5 °F 96% 30.03 in 10.0 mi SW 5.8 mph - N/A   Partly Cloudy
8:58 AM 74.8 °F - 73.8 °F 96% 30.03 in 10.0 mi SSW 5.8 mph - N/A   Partly Cloudy
9:58 AM 80.6 °F 85.0 °F 72.7 °F 77% 30.03 in 10.0 mi SW 8.1 mph - N/A   Clear
10:41 AM 87.8 °F 95.6 °F 73.4 °F 62% 30.04 in 10.0 mi Variable 1.2 mph - N/A   Light Drizzle
10:44 AM 87.8 °F 95.6 °F 73.4 °F 62% 30.04 in 10.0 mi Variable 3.5 mph - N/A   Scattered Clouds
10:47 AM 86.0 °F 93.4 °F 73.4 °F 66% 30.04 in 10.0 mi Variable 3.5 mph - N/A   Light Drizzle
10:51 AM 87.8 °F 95.6 °F 73.4 °F 62% 30.04 in 10.0 mi Variable 2.3 mph - N/A   Scattered Clouds
10:58 AM 86.7 °F 93.7 °F 72.7 °F 63% 30.03 in 10.0 mi South 5.8 mph - 0.00 in   Scattered Clouds
11:58 AM 86.4 °F 93.4 °F 73.0 °F 64% 30.03 in 10.0 mi Variable 1.2 mph - N/A   Scattered Clouds
12:58 PM 87.4 °F 95.3 °F 73.4 °F 63% 30.02 in 10.0 mi SSW 3.5 mph - N/A   Scattered Clouds
1:58 PM 88.3 °F 97.4 °F 74.1 °F 63% 30.01 in 10.0 mi SSW 4.6 mph - N/A   Partly Cloudy
2:58 PM 86.7 °F 96.9 °F 75.7 °F 70% 30.00 in 10.0 mi SW 10.4 mph - N/A   Partly Cloudy
3:58 PM 87.4 °F 95.3 °F 73.6 °F 63% 29.99 in 10.0 mi SSW 6.9 mph - N/A   Partly Cloudy
4:58 PM 88.5 °F 96.3 °F 72.9 °F 60% 29.99 in 10.0 mi SSW 6.9 mph - N/A   Scattered Clouds
5:58 PM 86.7 °F 95.0 °F 74.1 °F 66% 29.99 in 10.0 mi SSW 6.9 mph - N/A   Clear
6:58 PM 83.7 °F 91.7 °F 75.2 °F 76% 30.00 in 10.0 mi South 3.5 mph - N/A   Clear
7:58 PM 82.0 °F 88.1 °F 74.1 °F 77% 30.01 in 10.0 mi South 3.5 mph - N/A   Scattered Clouds
8:58 PM 80.4 °F 86.0 °F 75.6 °F 85% 30.02 in 10.0 mi South 2.3 mph - N/A   Clear
9:58 PM 78.8 °F - 75.0 °F 88% 30.03 in 10.0 mi Variable 1.2 mph - N/A   Clear
10:58 PM 78.6 °F - 75.9 °F 91% 30.04 in 10.0 mi SE 5.8 mph - N/A   Clear
11:58 PM 78.6 °F - 77.4 °F 96% 30.04 in 10.0 mi SSE 3.5 mph - N/A   Clear